Location: *
(48.4333°N, 5.0333°W)
Time: 11:35:06
(UTC+00:00)

ATLAS 2AS CENTAUR R/B - Pass Details

Date: 09 April 2020
Orbit: 931 x 1280 km, 63.7° (Epoch: 31 May)

Event Time Altitude Azimuth Distance (km) Brightness Sun altitude
Rises 19:54:34 0° 318° (NW) 4,185 7.1 -9.0°
Reaches altitude 10° 19:57:27 10° 316° (NW) 3,179 6.4 -9.4°
Maximum altitude 20:04:58 65° 237° (WSW) 1,260 3.2 -10.5°
Drops below altitude 10° 20:11:50 10° 157° (SSE) 2,916 4.5 -11.6°
Enters shadow 20:12:56 - 156° (SSE) 3,298 4.8 -11.7°
